Meath Environmental Platform

Observations for Trim Market St

Time AQI Temp °C Hum % Pres Pa CO μg/m³ H₂S μg/m³ NO μg/m³ NO₂ μg/m³ O₃ μg/m³ SO₂ μg/m³ PM1 μg/m³ PM2.5 μg/m³ PM10 μg/m³
Sunday 23 August 2026
03:23 2 13.7 68 56,939 0.34 0 2.34 7.67 53.1 0 2.14 3.63 6.89
03:22 2 13.7 68 56,940 0.34 0 2.41 7.58 53.59 0 2.14 4.6 6.89
03:21 2 13.7 68 56,941 0.33 0 2.32 7.58 53.27 0 1.43 2.65 4.34
03:20 2 13.7 68 56,938 0.34 0 2.24 7.58 53.17 0 1.43 4.12 6.25
03:19 2 13.7 68 56,938 0.33 0 2.27 7.67 53.15 0 2.14 3.63 5.62
03:18 2 13.7 68 56,939 0.34 0 2.2 7.67 53.1 0 1.43 3.63 5.62
03:17 2 13.7 68 56,940 0.33 0 1.93 7.67 53.04 0 1.43 3.14 4.98
03:16 2 13.7 68 56,940 0.34 0 1.91 7.57 53.39 0 1.43 3.14 5.62
03:15 2 13.7 68 56,938 0.34 0 1.9 7.67 53.15 0 2.85 5.09 7.53
03:14 2 13.8 68 56,934 0.34 0 1.91 7.61 53.42 0 3.56 5.09 10.08
03:13 2 13.8 68 56,932 0.34 0 2 7.61 53.2 0 2.14 4.12 6.25
03:12 2 13.8 68 56,931 0.33 0 2.26 7.46 55.92 0 2.85 4.6 7.53
03:10 2 13.8 68 56,926 0.35 0 2.18 8.08 52.69 0 2.14 4.61 7.53
03:08 2 13.8 68 56,923 0.34 0 2.33 7.9 52.99 0 1.43 3.14 4.98
03:06 2 13.8 68 56,919 0.35 0 2.34 8.25 52.24 0 2.14 3.14 6.25
03:04 2 13.8 68 56,919 0.36 0 2.5 18.42 39.69 0 2.14 4.12 6.25
02:55 2 13.9 68 56,914 0.34 0 2.09 8.68 51.1 0 2.14 3.64 8.17
02:54 2 13.9 68 56,919 0.36 0 2.15 7.76 54.42 0 2.85 4.62 9.45
02:53 2 13.9 68 56,923 0.41 0 2.07 7.76 54.42 0 2.14 4.13 6.25
02:52 2 13.9 68 56,929 0.32 0 1.85 7.94 53.59 0 2.14 3.15 4.97